GW1679 Weather Reports


Display with metric or nautical units.
time (UTC)temp
F
wind
direction
speed
MPH
gust
MPH
rain 1hr
in
rain 24hr
in
rain mn
in
humidity
%
barometer
mb
20260508041405 55 191 0.0 0.0 0.00 0.00 0.00 98 1029.7
20260508040902 55 191 0.0 0.0 0.00 0.00 0.00 98 1030.0
20260508040359 55 191 0.0 0.0 0.00 0.00 0.00 98 1029.9
20260508035857 55 191 0.0 0.0 0.00 1.17 1.17 98 1029.8
20260508035354 55 191 0.0 1.0 0.00 1.17 1.17 98 1029.6
20260508034850 55 191 0.0 0.0 0.00 1.17 1.17 98 1029.7
20260508034347 55 191 0.0 0.0 0.00 1.17 1.17 98 1029.6
20260508033844 55 191 0.0 0.0 0.00 1.17 1.17 98 1029.5
20260508033343 55 191 1.0 1.0 0.00 1.17 1.17 98 1029.3
20260508032839 55 191 0.0 0.0 0.00 1.17 1.17 98 1029.2
20260508032337 55 191 0.0 0.0 0.00 1.17 1.17 98 1029.3
20260508031833 55 191 0.0 0.0 0.00 1.17 1.17 98 1029.1
20260508031330 55 191 0.0 0.0 0.00 1.17 1.17 98 1029.0
20260508030827 55 191 1.0 1.0 0.00 1.17 1.17 98 1029.0
20260508030324 55 191 0.0 0.0 0.00 1.17 1.17 98 1029.3
20260508025821 55 191 0.0 0.0 0.00 1.17 1.17 98 1029.2
20260508025318 55 191 0.0 0.0 0.00 1.17 1.17 98 1028.7
20260508024815 55 191 0.0 0.0 0.00 1.17 1.17 98 1029.0
20260508024311 55 191 0.0 0.0 0.00 1.17 1.17 98 1028.9
20260508023808 55 191 0.0 0.0 0.00 1.17 1.17 98 1028.9
20260508023305 55 191 0.0 0.0 0.00 1.17 1.17 98 1028.7
20260508022801 55 191 0.0 0.0 0.00 1.17 1.17 98 1028.9
20260508022257 55 192 0.0 1.0 0.00 1.17 1.17 98 1028.8
20260508021755 55 192 0.0 0.0 0.00 1.17 1.17 98 1028.7
20260508021250 55 192 0.0 0.0 0.00 1.17 1.17 98 1028.5
20260508020747 55 191 0.0 0.0 0.00 1.17 1.17 98 1028.4
20260508020245 55 192 0.0 0.0 0.00 1.17 1.17 98 1028.5
20260508015741 55 192 0.0 0.0 0.00 1.17 1.17 98 1028.4
20260508015238 55 192 0.0 0.0 0.00 1.17 1.17 98 1028.5
20260508014735 55 191 0.0 0.0 0.00 1.17 1.17 98 1028.4
20260508014232 55 192 0.0 0.0 0.00 1.17 1.17 98 1028.6
20260508013728 55 192 0.0 0.0 0.00 1.17 1.17 98 1028.5
20260508013224 55 192 0.0 0.0 0.00 1.17 1.17 98 1028.4
20260508012722 55 192 0.0 0.0 0.00 1.17 1.17 97 1028.1
20260508012219 55 192 0.0 0.0 0.00 1.17 1.17 97 1028.1
20260508011717 55 192 0.0 0.0 0.00 1.17 1.17 97 1027.7
20260508011214 55 192 1.0 1.0 0.00 1.17 1.17 97 1027.6
20260508010711 55 191 0.0 1.0 0.07 1.17 1.17 97 1027.6
20260508010209 55 192 0.0 0.0 0.07 1.17 1.17 97 1027.7
20260508005706 55 192 0.0 0.0 0.00 1.16 1.16 97 1027.7
20260508005202 55 192 0.0 0.0 0.00 1.16 1.16 97 1027.6
20260508004658 55 192 0.0 0.0 0.00 1.16 1.16 97 1027.7
20260508004154 55 192 0.0 0.0 0.05 1.16 1.16 97 1027.7
20260508003651 55 192 1.0 1.0 0.12 1.16 1.16 96 1027.7
20260508003143 55 190 1.0 1.0 0.19 1.15 1.15 96 1027.4
20260508002639 55 189 0.0 0.0 0.24 1.13 1.13 95 1027.5
20260508002137 55 193 0.0 0.0 0.19 1.11 1.11 95 1028.0
20260508001632 55 193 0.0 0.0 0.12 1.09 1.09 94 1027.5
20260508001128 55 195 1.0 1.0 0.07 1.07 1.07 94 1027.6
20260508000624 55 201 1.0 1.0 0.12 1.07 1.07 93 1027.5
20260508000122 55 145 0.0 0.0 0.05 1.06 1.06 93 1026.9
20260507235619 55 142 0.0 0.0 0.00 1.05 1.05 93 1026.6
20260507235116 55 141 0.0 1.0 0.00 1.05 1.05 92 1026.6
20260507234612 56 141 0.0 1.0 0.00 1.05 1.05 92 1026.0
20260507234109 56 141 0.0 1.0 0.00 1.05 1.05 92 1026.3
20260507233606 56 141 0.0 0.0 0.00 1.05 1.05 92 1026.7
20260507233105 56 137 1.0 1.0 0.00 1.05 1.05 92 1026.8
20260507232600 56 183 0.0 1.0 0.00 1.05 1.05 92 1026.6
20260507232058 56 184 0.0 0.0 0.00 1.05 1.05 92 1026.7
20260507231554 56 202 0.0 2.0 0.00 1.05 1.05 92 1026.6
20260507231051 56 75 0.0 2.0 0.00 1.05 1.05 92 1026.7
20260507230548 56 142 0.0 1.0 0.00 1.05 1.05 92 1026.5
20260507230044 56 142 1.0 1.0 0.00 1.05 1.05 92 1026.5
20260507225539 56 179 1.0 1.0 0.00 1.05 1.05 92 1026.2
20260507225036 56 98 1.0 1.0 0.00 1.05 1.05 92 1026.4
20260507224532 56 114 1.0 3.0 0.00 1.05 1.05 91 1026.3
20260507224028 56 156 1.0 1.0 0.00 1.05 1.05 91 1026.6
20260507223525 56 119 1.0 3.0 0.00 1.05 1.05 91 1026.0
20260507223022 56 150 1.0 1.0 0.00 1.05 1.05 91 1026.2
20260507222519 57 172 1.0 2.0 0.00 1.05 1.05 90 1026.0
20260507222015 56 147 1.0 1.0 0.00 1.05 1.05 91 1025.8
20260507221512 56 152 1.0 1.0 0.00 1.05 1.05 91 1025.9
20260507221009 56 156 1.0 2.0 0.00 1.05 1.05 91 1025.8
20260507220506 56 125 1.0 2.0 0.00 1.05 1.05 92 1026.0
20260507220003 56 156 0.0 2.0 0.00 1.05 1.05 92 1026.2
20260507215459 56 123 0.0 2.0 0.00 1.05 1.05 92 1026.5
20260507214957 55 153 0.0 1.0 0.00 1.05 1.05 92 1026.5
20260507214454 55 136 1.0 1.0 0.00 1.05 1.05 92 1026.3
20260507213949 55 152 1.0 2.0 0.00 1.05 1.05 92 1026.3
20260507213446 55 138 1.0 1.0 0.00 1.05 1.05 92 1026.2
20260507212943 56 173 1.0 2.0 0.00 1.05 1.05 92 1026.1
20260507212439 56 161 1.0 3.0 0.00 1.05 1.05 93 1026.3
20260507211936 56 177 0.0 2.0 0.00 1.05 1.05 93 1026.1
20260507211433 56 162 2.0 2.0 0.00 1.05 1.05 93 1025.9
20260507210929 57 139 1.0 1.0 0.00 1.05 1.05 94 1025.9
20260507210426 57 83 1.0 1.0 0.00 1.05 1.05 94 1025.9
20260507205923 57 162 1.0 1.0 0.00 1.05 1.05 94 1026.1
20260507205420 57 153 0.0 1.0 0.00 1.05 1.05 93 1025.6
20260507204916 57 67 1.0 3.0 0.00 1.05 1.05 94 1025.6
20260507204413 58 147 1.0 3.0 0.00 1.05 1.05 93 1025.6
20260507203910 58 74 3.0 6.0 0.00 1.05 1.05 94 1025.3
20260507203408 58 188 1.0 3.0 0.00 1.05 1.05 94 1025.5
20260507202904 58 179 0.0 2.0 0.00 1.05 1.05 94 1025.2
20260507202401 59 152 1.0 1.0 0.00 1.05 1.05 94 1025.2
20260507201856 59 152 1.0 2.0 0.00 1.05 1.05 94 1025.5
20260507201352 59 92 0.0 2.0 0.00 1.05 1.05 94 1025.5
20260507200849 58 175 1.0 1.0 0.00 1.05 1.05 94 1025.3
20260507200345 58 140 1.0 3.0 0.00 1.05 1.05 94 1025.5
20260507195841 59 90 0.0 2.0 0.00 1.05 1.05 95 1025.3
20260507195338 59 186 1.0 3.0 0.00 1.05 1.05 95 1025.5
20260507194836 59 176 1.0 2.0 0.00 1.05 1.05 95 1025.3
20260507194332 59 160 2.0 3.0 0.07 1.05 1.05 95 1025.4
20260507193828 59 43 2.0 5.0 0.07 1.05 1.05 95 1025.2
20260507193326 59 194 0.0 2.0 0.00 1.04 1.04 95 1025.2
20260507192821 59 166 0.0 1.0 0.00 1.04 1.04 96 1025.2
20260507192318 59 34 2.0 2.0 0.00 1.04 1.04 95 1025.1
20260507191814 59 173 2.0 2.0 0.00 1.04 1.04 95 1025.2
20260507191311 59 224 2.0 5.0 0.00 1.04 1.04 95 1025.7
20260507190808 59 180 1.0 2.0 0.00 1.04 1.04 95 1025.4
20260507190307 60 210 1.0 2.0 0.00 1.04 1.04 95 1025.5
20260507185805 60 173 0.0 2.0 0.00 1.04 1.04 95 1025.3
20260507185301 60 178 2.0 3.0 0.07 1.04 1.04 95 1024.8
20260507184759 60 55 1.0 1.0 0.07 1.04 1.04 94 1024.2
20260507184257 61 152 1.0 3.0 0.12 1.03 1.03 94 1025.0
20260507183753 62 194 1.0 2.0 0.07 1.02 1.02 94 1025.0
20260507183250 62 13 1.0 5.0 0.00 1.01 1.01 92 1025.1
20260507182748 63 121 0.0 6.0 0.00 1.01 1.01 92 1025.0
20260507182242 64 46 3.0 5.0 0.00 1.01 1.01 93 1025.0
20260507181739 65 35 3.0 6.0 0.00 1.01 1.01 92 1024.0
20260507181236 67 220 1.0 3.0 0.00 1.01 1.01 91 1024.3
20260507180732 69 67 2.0 5.0 0.00 1.01 1.01 88 1024.5
20260507180230 71 30 3.0 5.0 0.00 1.01 1.01 93 1024.5
20260507175725 71 225 1.0 2.0 0.00 1.01 1.01 92 1024.2
20260507175222 70 241 1.0 2.0 0.00 1.01 1.01 92 1024.5
20260507174720 70 224 2.0 3.0 0.00 1.01 1.01 93 1024.8
20260507174217 70 217 2.0 2.0 0.00 1.01 1.01 94 1024.6
20260507173715 70 217 0.0 1.0 0.00 1.01 1.01 93 1024.6
20260507173211 70 223 2.0 3.0 0.00 1.01 1.01 93 1024.5
20260507172708 70 197 1.0 1.0 0.00 1.01 1.01 94 1024.2
20260507172205 70 225 2.0 2.0 0.00 1.01 1.01 94 1024.4
20260507171705 70 230 1.0 3.0 0.00 1.01 1.01 93 1024.0
20260507171203 70 223 1.0 3.0 0.00 1.01 1.01 93 1024.0
20260507170659 70 196 1.0 1.0 0.00 1.01 1.01 94 1023.9
20260507170156 70 201 1.0 1.0 0.05 1.01 1.01 95 1024.1
20260507165652 70 203 2.0 2.0 0.05 1.01 1.01 95 1024.2
20260507165148 69 207 0.0 1.0 0.00 1.00 1.00 95 1024.2
20260507164644 69 202 0.0 0.0 0.00 1.00 1.00 95 1024.6
20260507164142 69 201 1.0 1.0 0.00 1.00 1.00 94 1024.7
20260507163638 69 202 0.0 1.0 0.00 1.00 1.00 94 1024.8
20260507163137 70 240 2.0 3.0 0.00 1.00 1.00 93 1025.3
20260507162632 70 225 1.0 2.0 0.00 1.00 1.00 94 1025.2
20260507162129 69 226 0.0 5.0 0.00 1.00 1.00 95 1025.6
20260507161625 69 225 0.0 5.0 0.00 1.00 1.00 95 1025.8
20260507161122 69 222 4.0 5.0 0.00 1.00 1.00 94 1025.7
20260507160618 69 235 2.0 3.0 0.00 1.00 1.00 95 1025.7
20260507160114 69 182 2.0 3.0 0.00 1.00 1.00 95 1025.9
20260507155609 69 217 1.0 2.0 0.00 1.00 1.00 95 1026.0
20260507155107 69 237 2.0 2.0 0.00 1.00 1.00 96 1025.9
20260507154604 69 253 0.0 1.0 0.00 1.00 1.00 96 1025.8
20260507154101 69 211 0.0 1.0 0.00 1.00 1.00 96 1025.5
20260507153557 69 211 0.0 1.0 0.00 1.00 1.00 96 1025.1
20260507153054 69 250 1.0 1.0 0.00 1.00 1.00 96 1025.2
20260507152550 68 210 0.0 1.0 0.00 1.00 1.00 97 1025.6
20260507152046 68 226 2.0 3.0 0.07 1.00 1.00 97 1025.5
20260507151542 68 239 0.0 2.0 0.07 1.00 1.00 97 1025.3
20260507151039 68 188 1.0 2.0 0.00 0.99 0.99 97 1025.3
20260507150537 68 197 0.0 0.0 0.05 0.99 0.99 97 1025.5
20260507150033 67 233 2.0 2.0 0.05 0.99 0.99 97 1025.6
20260507145528 67 214 3.0 3.0 0.12 0.98 0.98 97 1025.8
20260507145026 67 225 2.0 3.0 0.12 0.97 0.97 97 1026.1
20260507144522 67 260 3.0 3.0 0.26 0.96 0.96 97 1026.2
20260507144020 67 252 2.0 7.0 0.26 0.94 0.94 97 1025.9
20260507143517 67 280 2.0 5.0 0.17 0.92 0.92 97 1026.1
20260507143015 67 293 2.0 2.0 0.28 0.90 0.90 97 1026.0
20260507142509 67 349 1.0 3.0 0.66 0.88 0.88 97 1025.9
20260507142007 68 188 3.0 5.0 0.71 0.84 0.84 97 1026.0
20260507141503 68 202 1.0 2.0 0.66 0.77 0.77 97 1026.2
20260507140959 68 202 0.0 0.0 0.71 0.71 0.71 97 1026.1
20260507140456 68 319 2.0 2.0 0.59 0.65 0.65 97 1026.5
20260507135954 68 237 1.0 3.0 0.24 0.58 0.58 97 1026.3
20260507135450 68 239 1.0 1.0 0.14 0.55 0.55 97 1026.4
20260507134948 68 240 0.0 1.0 0.07 0.54 0.54 97 1026.3
20260507134444 68 243 0.0 0.0 0.00 0.53 0.53 97 1026.2
20260507133940 68 240 0.0 1.0 0.00 0.53 0.53 97 1026.2
20260507133436 68 239 0.0 1.0 0.00 0.53 0.53 97 1026.3
20260507132935 68 240 0.0 1.0 0.00 0.53 0.53 97 1026.4
20260507132431 68 241 0.0 1.0 0.00 0.53 0.53 97 1026.3
20260507131927 68 254 0.0 1.0 0.00 0.53 0.53 97 1026.3
20260507131425 68 229 1.0 2.0 0.00 0.53 0.53 97 1026.4
20260507130922 68 228 1.0 2.0 0.00 0.53 0.53 97 1026.3
20260507130419 68 228 1.0 1.0 0.05 0.53 0.53 97 1026.0
20260507125917 67 230 0.0 1.0 0.05 0.53 0.53 97 1026.2
20260507125415 67 228 0.0 2.0 0.00 0.52 0.52 97 1026.0
20260507124912 67 210 2.0 5.0 0.00 0.52 0.52 97 1026.3
20260507124408 67 245 2.0 2.0 0.00 0.52 0.52 97 1026.1
20260507123907 67 227 1.0 2.0 0.00 0.52 0.52 98 1026.2
20260507123403 67 138 0.0 2.0 0.00 0.52 0.52 98 1026.2
20260507122900 67 218 0.0 0.0 0.00 0.52 0.52 98 1026.2
20260507122355 67 218 0.0 1.0 0.00 0.52 0.52 98 1026.2
20260507121852 67 218 0.0 1.0 0.00 0.52 0.52 98 1026.3
20260507121347 67 211 1.0 1.0 0.00 0.52 0.52 98 1026.7
20260507120844 67 210 0.0 0.0 0.00 0.52 0.52 98 1026.2
20260507120340 67 201 0.0 1.0 0.00 0.52 0.52 98 1026.4
20260507115837 67 216 1.0 1.0 0.00 0.52 0.52 98 1026.6
20260507115332 66 216 0.0 0.0 0.00 0.52 0.52 98 1026.5
20260507114828 66 216 0.0 1.0 0.00 0.52 0.52 98 1026.5
20260507114325 66 218 0.0 1.0 0.00 0.52 0.52 98 1026.7
20260507113823 66 218 0.0 1.0 0.00 0.52 0.52 98 1026.8
20260507113320 66 228 0.0 1.0 0.00 0.52 0.52 98 1026.9
20260507112818 66 228 0.0 0.0 0.00 0.52 0.52 98 1026.8
20260507112314 66 228 0.0 0.0 0.00 0.52 0.52 98 1026.8
20260507111812 66 229 1.0 2.0 0.00 0.52 0.52 98 1026.8
20260507111308 66 217 1.0 2.0 0.00 0.52 0.52 98 1026.8
20260507110804 66 224 1.0 2.0 0.00 0.52 0.52 98 1026.9
20260507110301 66 205 2.0 2.0 0.00 0.52 0.52 98 1026.7
20260507105758 66 201 1.0 2.0 0.00 0.52 0.52 98 1026.7
20260507105254 66 201 2.0 1.0 0.00 0.52 0.52 98 1026.6
20260507104752 66 221 1.0 2.0 0.00 0.52 0.52 98 1026.5
20260507104248 66 214 1.0 5.0 0.00 0.52 0.52 98 1026.6
20260507103744 66 209 0.0 1.0 0.07 0.52 0.52 98 1026.6
20260507103240 66 208 0.0 1.0 0.07 0.52 0.52 98 1026.7
20260507102737 66 217 1.0 2.0 0.00 0.51 0.51 98 1026.7
20260507102234 66 205 1.0 1.0 0.00 0.51 0.51 98 1026.6
20260507101730 66 218 1.0 2.0 0.05 0.51 0.51 98 1026.3
20260507101225 66 221 0.0 2.0 0.05 0.51 0.51 98 1026.7
20260507100722 66 221 2.0 2.0 0.00 0.50 0.50 98 1026.6
20260507100221 66 246 1.0 1.0 0.00 0.50 0.50 98 1026.7
20260507095718 66 214 0.0 1.0 0.00 0.50 0.50 98 1026.5
20260507095215 66 219 2.0 2.0 0.00 0.50 0.50 98 1026.4
20260507094711 66 225 1.0 2.0 0.00 0.50 0.50 98 1026.4
20260507094209 66 222 1.0 2.0 0.00 0.50 0.50 98 1026.5
20260507093705 66 240 3.0 3.0 0.00 0.50 0.50 98 1026.4
20260507093204 66 203 1.0 5.0 0.07 0.50 0.50 98 1026.5
20260507092701 66 251 5.0 6.0 0.00 0.49 0.49 98 1026.3
20260507092157 66 231 1.0 2.0 0.00 0.49 0.49 98 1026.4
20260507091654 66 176 0.0 2.0 0.00 0.49 0.49 98 1026.3
20260507091150 66 208 4.0 5.0 0.00 0.49 0.49 98 1026.5
20260507090645 66 224 1.0 1.0 0.05 0.49 0.49 98 1026.5
20260507090143 66 228 3.0 3.0 0.05 0.49 0.49 98 1026.8
20260507085640 66 141 0.0 1.0 0.00 0.48 0.48 98 1026.3
20260507085136 66 110 0.0 0.0 0.00 0.48 0.48 98 1026.5
20260507084633 66 109 0.0 1.0 0.07 0.48 0.48 98 1026.7
20260507084130 66 101 0.0 0.0 0.12 0.48 0.48 98 1027.0
20260507083627 66 97 1.0 1.0 0.24 0.47 0.47 98 1027.2
20260507083124 65 163 0.0 0.0 0.24 0.45 0.45 98 1026.7
20260507082619 65 165 0.0 1.0 0.19 0.43 0.43 98 1027.3
20260507082116 65 163 0.0 0.0 0.12 0.41 0.41 98 1027.3
20260507081613 65 164 0.0 0.0 0.05 0.40 0.40 98 1027.3
20260507081109 65 164 0.0 1.0 0.00 0.39 0.39 97 1027.5
20260507080606 65 161 0.0 0.0 0.07 0.39 0.39 97 1027.0
20260507075557 65 156 0.0 1.0 0.12 0.38 0.38 97 1027.2
20260507075054 65 160 1.0 2.0 0.07 0.37 0.37 97 1025.9
20260507074551 65 201 0.0 1.0 0.05 0.36 0.36 97 1026.9
20260507074049 65 216 0.0 0.0 0.12 0.36 0.36 97 1027.3
20260507073544 65 220 0.0 0.0 0.00 0.34 0.34 97 1027.4
20260507073041 65 220 0.0 0.0 0.05 0.34 0.34 97 1027.4
20260507072539 65 221 1.0 1.0 0.05 0.34 0.34 97 1027.7
20260507072036 65 220 0.0 1.0 0.07 0.33 0.33 97 1027.4
20260507071533 65 219 1.0 1.0 0.07 0.33 0.33 97 1027.5
20260507071030 65 219 0.0 0.0 0.05 0.32 0.32 97 1027.5
20260507070527 65 219 1.0 1.0 0.05 0.32 0.32 97 1027.6
20260507070024 65 219 0.0 0.0 0.00 0.31 0.31 97 1027.8
20260507065520 65 219 0.0 0.0 0.00 0.31 0.31 97 1028.1
20260507065018 65 219 0.0 0.0 0.00 0.31 0.31 97 1027.9
20260507064515 65 219 0.0 0.0 0.00 0.31 0.31 97 1027.9
20260507064014 65 219 0.0 0.0 0.00 0.31 0.31 97 1027.6
20260507063510 65 219 0.0 0.0 0.00 0.31 0.31 96 1028.0
20260507063008 65 219 0.0 0.0 0.00 0.31 0.31 96 1028.1
20260507062504 65 219 0.0 0.0 0.00 0.31 0.31 96 1028.3
20260507062002 65 219 0.0 1.0 0.00 0.31 0.31 96 1028.3
20260507061459 65 219 1.0 1.0 0.00 0.31 0.31 96 1028.2
20260507060958 65 219 0.0 0.0 0.00 0.31 0.31 96 1028.6
20260507060454 65 219 0.0 0.0 0.00 0.31 0.31 96 1028.7
20260507055951 65 219 0.0 0.0 0.00 0.31 0.31 96 1028.6
20260507055446 65 219 0.0 0.0 0.00 0.31 0.31 96 1028.5
20260507054943 65 219 0.0 0.0 0.00 0.31 0.31 96 1028.4
20260507054439 65 219 0.0 0.0 0.00 0.31 0.31 96 1028.3
20260507053936 66 219 0.0 0.0 0.00 0.31 0.31 95 1028.4
20260507053434 66 219 0.0 0.0 0.00 0.31 0.31 95 1028.1
20260507052932 66 219 0.0 0.0 0.00 0.31 0.31 95 1027.6
20260507052430 66 219 0.0 0.0 0.00 0.31 0.31 95 1027.5
20260507051927 66 219 0.0 0.0 0.00 0.31 0.31 95 1027.9
20260507051424 66 219 0.0 1.0 0.00 0.31 0.31 95 1028.0
20260507050921 66 220 0.0 1.0 0.31 0.31 0.31 94 1028.1
20260507050418 66 128 1.0 2.0 0.78 0.30 0.30 94 1027.6
20260507045914 67 192 0.0 3.0 0.59 0.23 0.23 93 1029.5
20260507045411 67 202 1.0 1.0 0.42 0.17 0.17 93 1029.8
20260507044908 67 229 1.0 2.0 0.28 0.12 0.12 92 1029.8
20260507044405 68 232 1.0 1.0 0.28 0.10 0.10 92 1030.1
20260507043901 68 209 0.0 0.0 0.24 0.06 0.06 91 1029.8
20260507043357 68 235 1.0 1.0 0.24 0.04 0.04 89 1030.1
20260507042853 68 210 0.0 1.0 0.00 0.00 0.00 88 1029.9
20260507042350 69 217 1.0 1.0 0.00 0.00 0.00 87 1030.0
20260507041846 69 230 1.0 1.0 0.00 0.00 0.00 86 1029.7